Wind_Speed
3 3 5 5 4 5 6 7 7 5 1 2 3 2 4 5 7 7 4 6 3 3 6 6 7 8 10 11 5 11 12 12 11 9 9 10 9 9 11 11 11 10 8 11 16 19 22 23 24 24 25 28 27 26 29 31 33 35 33 31 28 28 27 26 24 23 22 21 20 18 16 15 13 12 11 9 9 9 9 9 9 8 8 8 7 6
3 6 7 5 6 6 7 6 6 3 2 2 3 4 6 4 8 8 5 8 4 1 6 6 6 9 12 10 4 11 13 13 13 12 12 12 10 10 12 13 12 9 9 13 14 17 21 23 25 24 25 29 27 26 29 29 29 31 32 32 30 28 27 27 25 24 22 22 21 19 17 16 13 12 12 11 11 11 11 10 10 9 9 8 7 6
2 6 7 4 6 6 4 2 4 3 3 3 2 2 5 4 5 8 5 7 3 3 5 7 6 10 12 9 5 12 14 14 16 17 16 16 14 12 13 13 12 11 11 12 11 15 22 25 25 22 24 29 28 27 28 25 24 26 28 30 29 28 27 26 26 24 22 21 20 18 17 15 13 13 13 12 12 12 10 10 10 9 9 8 8 7
4 6 7 7 6 5 3 3 4 2 2 3 3 2 5 4 2 5 5 5 3 2 6 6 6 9 9 5 5 11 12 12 15 16 15 15 15 14 13 12 12 13 13 11 10 13 20 23 21 20 25 28 24 24 25 25 25 27 29 30 29 28 26 24 25 24 22 20 19 17 15 14 14 14 14 12 12 11 9 9 9 9 9 10 9 8
9 8 4 5 6 7 6 5 4 4 3 3 5 5 5 5 6 7 6 6 5 5 4 2 5 6 6 4 3 4 6 10 11 10 8 8 8 9 10 10 11 12 13 12 11 12 16 19 19 22 28 27 22 23 24 26 29 30 32 32 30 28 25 23 24 24 21 19 18 16 14 14 14 14 14 14 14 12 10 9 9 10 10 10 9 8
11 8 5 6 5 7 7 6 5 7 4 4 5 8 9 9 10 9 7 5 5 6 3 2 4 6 6 4 3 4 4 8 8 9 10 8 8 10 11 10 11 11 12 12 12 12 13 16 18 22 27 26 24 24 25 26 30 32 33 32 31 29 25 22 23 23 20 19 19 18 17 17 16 16 16 17 16 14 12 10 10 10 11 10 8 8
6 4 6 6 6 6 6 6 5 8 5 5 6 10 13 11 10 9 7 3 1 5 4 3 2 5 6 5 1 5 8 8 7 8 10 9 10 11 11 11 11 11 11 11 12 12 12 14 17 20 25 28 28 26 25 25 28 31 31 30 31 29 26 23 21 21 19 19 19 19 19 20 20 19 18 18 17 15 13 11 10 10 11 9 8 7
4 4 5 5 5 5 5 5 6 10 7 5 6 8 9 9 9 9 7 5 4 3 3 2 4 3 4 4 3 3 10 9 8 9 9 9 10 10 11 12 12 12 12 11 12 12 10 13 18 21 25 30 30 27 25 26 28 29 29 28 30 29 26 24 22 21 20 20 19 19 19 20 20 20 19 19 17 15 13 13 12 12 12 10 8 8
2 5 6 6 4 4 6 7 8 11 6 8 7 7 7 9 9 9 6 4 2 1 4 5 2 1 5 4 4 5 8 9 10 12 12 11 12 11 10 11 11 11 11 11 12 13 13 17 23 25 26 27 27 24 23 26 26 27 27 27 28 28 27 25 24 22 21 20 19 19 21 21 20 19 19 19 17 15 14 15 15 13 12 11 9 8
2 6 7 6 5 5 8 9 8 13 8 8 6 5 4 4 3 3 4 4 1 1 5 8 1 2 4 4 4 5 4 7 9 10 11 10 11 12 10 10 12 11 10 11 11 13 16 22 25 24 22 21 22 20 18 19 20 23 25 26 26 26 27 26 24 23 21 20 20 22 24 23 21 20 19 19 17 16 16 16 15 14 12 11 10 9
4 3 4 5 5 6 9 9 8 15 12 3 4 4 3 1 3 2 2 4 3 1 7 9 5 4 2 3 1 2 2 6 8 7 8 9 9 10 10 10 12 12 11 10 10 11 16 20 20 17 16 17 19 17 14 13 16 20 22 22 24 25 26 26 25 24 22 20 22 25 25 24 22 21 21 20 18 18 18 17 15 14 12 11 11 9
5 3 3 4 6 6 6 6 4 10 10 3 3 3 3 3 3 4 4 4 3 4 7 7 5 6 2 4 2 2 5 6 10 11 12 14 13 12 11 10 11 12 11 11 10 9 11 14 13 13 15 17 17 15 12 12 14 17 19 21 23 24 26 26 24 23 22 22 26 27 26 24 23 22 23 22 21 20 19 17 15 14 12 11 10 9
5 4 4 4 6 7 6 4 3 1 5 5 3 4 2 2 3 2 2 1 2 6 6 4 2 4 3 5 4 5 6 8 12 14 16 18 15 13 12 11 11 11 9 9 9 8 8 8 9 12 15 16 16 15 13 12 13 16 18 20 22 25 26 25 24 23 22 24 26 27 26 25 23 23 24 24 22 21 19 17 16 15 14 12 11 9
4 5 5 3 5 5 7 5 2 1 4 6 5 4 4 2 1 2 3 0 2 5 4 4 1 1 3 4 5 8 7 9 11 10 12 14 12 10 9 9 8 6 6 7 8 8 8 7 8 12 14 14 15 17 15 13 13 15 17 19 22 24 25 24 23 22 22 23 24 26 27 25 24 25 25 24 22 20 19 17 17 15 14 14 12 11
2 4 4 5 3 2 6 8 6 5 5 5 5 6 5 4 4 3 3 3 3 3 3 4 1 2 2 3 6 8 4 3 5 4 5 7 8 9 9 8 5 1 5 7 3 1 2 2 5 7 10 13 15 17 16 14 13 14 17 20 21 22 24 23 23 22 21 21 23 25 26 24 24 24 24 23 21 20 19 17 17 15 14 13 13 12
3 5 7 5 3 2 3 5 5 6 2 2 2 5 3 5 6 2 3 5 3 1 2 3 0 1 3 3 7 6 5 6 7 7 8 8 8 10 10 9 8 10 9 4 4 5 4 4 3 4 7 12 15 16 16 15 14 14 16 19 20 22 23 22 22 22 21 21 22 24 25 24 23 23 22 21 20 19 19 17 15 13 12 12 12 13
2 5 7 4 4 4 5 5 4 4 3 1 2 3 3 4 7 4 2 0 2 2 1 1 1 2 2 2 7 7 5 7 8 9 10 9 7 6 6 9 10 8 5 5 7 4 3 5 4 5 8 13 16 16 15 14 13 12 14 18 19 20 21 22 22 21 20 19 20 23 24 24 22 21 20 20 20 20 19 16 13 11 11 11 13 14
3 4 6 4 6 8 4 3 1 1 4 4 2 5 2 3 4 4 2 3 4 2 2 2 1 2 2 0 5 6 3 6 8 9 10 9 8 6 5 4 3 3 4 6 6 5 4 5 6 8 10 14 17 15 13 11 10 9 12 17 19 18 20 20 19 19 18 16 18 22 23 23 21 20 20 19 19 19 18 16 14 12 11 11 13 15
3 3 7 4 5 6 3 3 2 5 1 4 4 3 3 2 0 1 2 1 1 2 1 2 1 1 2 2 3 4 1 2 5 7 9 10 10 9 6 4 6 5 4 5 6 5 4 5 7 9 12 15 17 13 9 8 7 7 8 11 13 13 15 17 16 16 15 13 17 21 22 22 21 19 19 19 18 18 18 16 15 13 11 12 13 14
2 1 6 5 3 3 5 4 1 5 5 3 2 1 2 3 4 2 2 3 3 3 2 0 1 2 3 3 3 5 4 3 3 1 4 8 8 5 5 6 5 3 3 4 5 5 5 6 8 10 12 14 16 15 11 10 10 8 7 8 10 10 12 14 14 14 12 11 15 18 19 20 19 19 19 19 18 20 19 17 15 14 12 13 13 13
2 2 3 6 5 3 2 0 4 4 0 2 2 1 2 1 2 2 1 2 4 4 3 3 1 4 4 2 3 5 3 5 7 6 5 2 3 6 6 6 6 4 3 4 5 5 6 7 9 12 13 14 16 16 16 15 15 12 10 11 13 14 15 15 14 15 15 15 16 18 19 19 19 19 19 20 19 19 19 16 13 14 13 13 13 13
1 2 2 4 4 1 3 3 2 4 6 5 3 2 1 2 3 3 1 2 2 4 4 5 3 5 4 2 3 3 1 4 6 6 7 8 7 6 3 5 7 7 6 6 7 7 7 9 11 14 16 17 18 17 17 18 20 19 16 14 15 15 16 16 16 16 17 18 18 20 21 20 19 19 19 21 20 17 17 15 13 14 15 13 13 12
2 4 3 2 3 4 6 4 3 1 6 8 3 2 3 2 3 4 3 3 1 3 2 4 2 4 3 2 2 2 4 5 6 5 6 7 8 7 5 6 7 7 5 6 7 6 7 11 15 16 17 18 18 17 17 19 22 19 15 15 16 16 16 16 16 15 16 17 18 19 21 19 18 18 19 20 18 14 13 14 14 16 16 14 13 13
1 3 2 2 3 4 6 6 6 5 4 6 3 2 2 1 1 4 5 3 3 2 2 3 1 3 2 2 2 3 5 6 6 5 5 6 6 5 5 6 7 6 5 5 5 5 6 10 13 14 15 16 17 17 17 18 19 16 17 17 18 18 18 17 17 17 18 19 20 22 22 20 19 20 19 18 15 12 13 15 17 18 17 15 14 15
0 0 3 2 2 4 5 6 6 5 4 2 1 2 2 2 3 2 1 3 3 2 3 5 2 4 1 2 3 4 5 6 6 5 5 6 6 5 4 4 5 5 5 5 5 5 6 6 7 9 11 13 16 17 18 18 19 21 21 20 20 20 20 19 19 21 22 22 25 26 25 23 22 23 22 20 15 12 15 18 18 19 17 15 15 15
2 1 3 4 3 2 2 2 3 3 2 2 1 3 4 4 4 2 1 4 2 1 3 4 3 2 2 2 4 5 5 6 5 5 6 6 6 5 3 3 4 4 6 6 6 6 7 7 7 8 9 10 12 14 16 17 18 20 20 20 21 21 22 22 22 24 25 26 29 29 27 25 24 23 22 20 16 14 17 20 19 19 18 16 16 16
3 2 3 4 5 4 5 5 5 2 2 2 4 3 3 3 4 4 4 2 2 1 3 0 3 6 6 5 5 5 5 5 4 3 5 6 6 6 4 5 7 7 8 9 9 9 9 8 8 10 11 11 12 13 16 16 16 17 17 18 20 22 23 23 24 26 28 30 30 28 25 25 25 23 19 14 13 14 18 20 20 19 18 17 17 17
4 3 3 3 3 1 2 4 3 1 4 3 4 6 5 3 5 7 4 3 4 3 1 2 3 7 7 7 7 5 3 5 5 4 5 6 6 7 6 8 11 11 10 11 12 11 11 9 7 10 13 12 13 15 16 17 17 18 18 19 21 22 23 22 24 27 29 31 30 27 26 27 25 24 18 12 12 14 17 20 21 21 20 19 18 18
5 2 2 1 3 5 6 7 5 4 5 5 6 7 8 6 5 7 2 2 5 4 3 4 6 5 3 4 5 4 5 7 7 6 7 7 8 8 9 11 12 11 11 12 11 10 10 9 7 10 13 12 13 16 17 18 18 18 18 18 18 19 20 21 22 24 25 28 28 26 28 28 26 25 20 16 16 17 19 22 23 22 20 20 19 17
4 2 2 1 3 8 9 8 8 6 5 6 8 8 8 7 6 9 5 3 5 5 6 9 9 6 4 4 5 6 7 8 8 8 8 9 8 8 10 11 10 10 10 11 10 9 9 9 9 11 14 14 14 16 17 18 18 18 18 17 16 16 15 16 17 17 17 19 20 19 22 25 25 25 23 21 21 20 18 19 21 19 17 17 17 16
3 1 1 2 4 5 7 6 7 7 4 7 8 9 10 8 5 7 6 6 7 7 7 10 8 4 3 3 5 6 6 8 10 9 9 9 7 8 11 10 9 10 9 10 10 10 9 10 10 12 15 16 17 18 19 19 21 21 21 21 21 20 18 17 16 15 15 14 13 13 16 19 20 20 20 21 21 19 17 18 18 16 14 14 13 13
3 2 0 3 3 2 5 6 7 8 5 6 8 11 11 6 2 2 2 3 4 7 9 8 4 2 1 3 6 8 7 9 10 9 8 7 7 8 10 10 9 9 9 10 10 9 8 9 10 13 15 18 20 21 21 22 24 25 25 26 26 25 25 24 22 19 17 15 13 11 11 13 14 13 13 14 14 13 13 16 16 13 11 11 10 10
3 4 2 3 3 1 4 5 5 6 4 3 5 8 7 5 2 2 4 5 2 5 7 5 4 3 3 3 7 9 9 9 9 7 7 7 7 9 10 10 9 9 9 9 10 9 7 9 12 15 18 20 22 22 23 25 27 26 26 28 29 31 31 30 29 27 24 22 20 17 15 15 14 13 11 9 9 9 10 11 11 10 8 9 9 8
3 5 3 2 3 1 2 3 3 3 1 1 3 4 3 2 2 4 5 6 6 4 5 5 6 7 7 6 7 8 8 8 8 8 8 7 6 8 10 10 9 9 9 9 9 8 8 11 16 19 21 22 22 23 25 27 28 27 28 30 32 33 33 33 32 31 30 28 27 26 24 23 23 21 16 12 12 12 11 10 8 7 6 6 6 5
3 4 2 1 3 2 1 3 3 1 1 1 3 4 2 3 6 8 8 8 7 7 10 11 10 9 9 7 7 8 7 7 8 9 10 9 7 6 9 9 8 8 8 8 8 9 11 14 17 20 22 23 22 23 26 27 28 29 30 31 32 33 33 33 33 32 31 31 30 29 29 28 27 26 23 20 18 18 16 14 12 9 7 6 5 4
5 4 2 2 2 2 2 3 1 2 2 2 3 4 3 3 3 5 7 8 7 4 8 12 10 8 10 9 7 7 6 5 8 9 8 8 7 7 7 7 7 7 8 9 9 10 14 16 17 19 23 25 24 25 26 25 27 30 31 31 32 32 32 33 33 32 31 31 30 29 28 27 27 26 25 23 22 21 20 18 16 14 12 10 9 8
5 4 2 2 1 2 3 2 1 0 1 2 2 3 1 1 3 2 3 3 4 2 5 11 12 9 9 9 7 7 7 7 8 8 7 8 8 7 7 7 8 8 10 13 14 15 18 20 19 20 25 28 27 26 25 25 27 31 32 31 31 31 32 33 32 30 30 30 28 28 26 25 25 24 23 23 22 21 20 19 17 16 13 12 12 10
4 3 3 3 1 1 3 3 1 1 1 0 2 4 1 2 3 2 2 2 2 2 4 10 13 11 9 9 8 7 6 7 6 3 4 6 6 6 7 8 10 11 12 15 18 18 20 22 21 21 25 27 25 24 25 26 28 32 32 30 30 31 32 31 29 28 29 28 26 25 24 23 23 23 22 21 21 20 18 17 17 16 14 13 12 11
8 4 3 4 2 2 4 3 1 2 1 1 3 6 4 2 4 3 4 2 2 5 4 8 12 11 9 10 8 5 3 5 3 1 2 3 4 6 6 7 12 14 14 16 18 18 18 18 19 20 23 25 23 22 23 25 29 32 31 28 30 31 31 29 27 26 26 25 24 23 21 21 21 21 21 20 19 18 17 16 15 14 13 13 12 11
8 5 4 4 3 2 3 2 0 1 0 1 4 8 8 4 1 5 3 3 4 7 5 7 11 10 8 8 5 1 1 3 5 4 4 3 4 6 6 7 11 13 13 15 17 17 17 17 18 19 21 22 21 21 22 26 30 31 28 27 29 29 27 25 23 23 22 21 21 21 20 19 19 19 19 19 18 17 16 15 15 14 14 13 13 12
4 3 3 4 3 3 3 2 1 1 1 3 6 9 9 4 2 3 1 5 5 8 6 5 8 8 6 5 3 1 2 5 7 7 6 5 5 7 9 12 13 13 13 15 17 19 19 18 18 20 21 21 22 23 24 27 30 28 26 26 27 25 22 20 19 18 18 18 19 20 19 19 19 18 18 18 16 16 16 16 16 16 15 15 14 13
3 3 3 2 2 2 2 2 2 1 1 4 8 9 6 1 1 2 2 2 6 8 6 5 6 6 4 3 3 4 7 9 10 9 6 5 5 6 9 13 14 13 14 17 18 20 20 19 19 21 21 22 23 23 24 27 27 26 25 26 24 19 16 16 16 16 16 17 18 19 19 19 18 18 18 17 17 17 17 17 17 16 16 16 15 15
2 1 2 2 1 1 2 3 2 1 2 7 9 6 2 1 2 3 1 3 6 8 8 6 5 4 4 5 7 9 10 10 9 8 7 6 6 7 10 12 13 13 15 16 17 18 19 19 19 20 21 22 23 23 23 25 26 25 25 25 21 16 14 14 14 14 15 17 18 19 19 18 18 18 18 18 17 17 17 17 17 17 17 17 17 16
3 1 1 0 1 1 2 1 0 2 5 7 5 2 1 1 2 1 2 4 4 5 7 5 3 4 7 9 9 9 9 8 7 7 7 6 6 8 11 12 13 15 16 16 16 17 20 20 20 20 21 22 23 23 23 24 24 24 24 22 18 16 15 14 14 15 16 18 18 19 19 19 19 19 19 18 18 17 17 17 17 17 17 17 17 17
2 2 3 1 1 2 2 1 1 2 4 4 3 2 3 3 3 3 6 5 4 3 4 5 5 6 8 11 10 8 7 7 6 6 6 5 5 8 10 12 15 16 16 16 17 19 20 21 20 20 20 20 21 22 22 23 23 23 21 19 18 17 15 14 15 17 17 18 18 18 18 18 18 18 18 18 18 18 18 18 17 17 17 17 17 17
1 2 4 3 2 3 3 2 2 2 3 4 4 4 5 6 5 5 8 7 4 5 5 6 6 7 8 10 10 8 6 7 7 6 6 5 5 8 11 13 15 16 17 17 17 17 18 19 19 19 19 19 19 19 20 22 23 22 19 18 18 18 16 15 16 17 17 17 16 16 16 17 17 17 16 15 15 15 15 15 15 15 15 15 15 15
1 2 4 4 2 2 2 2 3 3 3 4 5 6 7 8 6 6 8 7 6 8 8 7 8 8 8 9 9 8 7 8 8 6 5 5 6 8 11 13 13 15 16 16 15 15 16 16 16 16 15 15 15 16 17 19 20 20 19 18 19 18 17 16 16 16 16 15 14 14 14 15 15 14 14 13 13 13 13 13 13 13 13 13 14 14
1 3 4 3 2 2 1 0 3 3 3 4 4 5 6 7 8 8 7 7 8 9 9 9 9 8 6 6 8 8 7 6 6 6 4 4 6 9 11 13 14 15 15 15 14 15 15 15 14 13 12 12 11 12 13 15 15 15 16 17 17 17 17 16 15 14 14 13 12 13 13 13 13 13 13 14 14 13 13 13 13 13 12 11 12 13
2 3 2 2 3 3 2 1 2 4 5 5 4 4 4 5 7 8 8 8 8 8 9 10 10 8 7 6 6 7 7 5 5 6 5 4 5 7 10 13 15 15 15 15 15 14 14 13 12 11 11 11 9 9 10 11 12 12 12 13 13 14 14 14 13 12 12 11 12 12 12 12 13 14 15 15 15 14 13 13 13 13 13 12 11 11
3 2 1 3 4 0 3 3 2 3 2 0 1 3 3 4 7 8 7 7 7 7 7 9 9 9 9 9 9 9 7 5 7 10 8 6 7 7 9 11 12 13 13 14 14 13 12 11 9 9 11 11 9 7 8 9 10 10 10 10 11 12 12 11 11 11 11 11 12 12 12 13 14 15 15 15 15 15 14 14 13 12 13 13 12 11
2 3 3 4 3 4 6 6 4 4 3 4 3 2 2 3 7 7 6 6 6 5 7 8 8 8 8 9 12 13 10 7 9 12 10 8 9 10 9 9 10 11 11 12 13 13 11 9 8 9 10 11 10 7 6 7 9 9 9 10 11 12 13 12 11 11 11 11 11 11 12 14 14 14 14 15 16 16 17 17 16 15 13 12 12 14
Wind_Direction
144 193 240 225 202 168 197 205 189 206 269 298 272 243 257 271 276 277 271 271 292 311 278 257 260 263 261 262 190 167 181 182 181 167 170 176 166 164 169 171 157 149 149 146 154 157 158 165 173 175 176 180 184 181 178 180 183 187 190 190 187 188 191 189 192 193 190 190 191 193 194 190 184 183 182 173 164 153 142 133 131 136 141 147 148 149
121 204 239 206 177 182 206 204 183 213 278 276 270 288 283 258 268 278 277 280 287 207 268 275 279 272 260 260 192 158 171 182 182 176 180 177 168 171 171 166 152 142 141 142 151 154 152 162 174 177 179 185 186 183 182 182 183 185 189 190 188 187 189 191 194 195 192 191 191 189 189 188 184 179 172 160 151 142 134 128 125 130 138 145 141 138
225 234 250 215 187 197 232 199 154 198 233 237 252 287 279 268 287 290 281 284 284 148 263 282 276 268 265 260 181 164 173 184 188 184 180 173 169 177 175 165 150 139 141 145 149 149 153 166 177 178 185 193 190 184 183 181 179 180 186 192 192 190 191 190 192 193 192 192 192 190 187 184 179 173 167 158 150 141 134 129 123 126 132 135 130 128
236 250 241 217 186 173 251 253 152 190 254 221 213 228 264 273 295 284 290 300 296 239 266 285 290 274 277 278 176 178 182 183 193 189 178 171 172 176 170 158 146 142 146 147 150 153 159 169 177 181 192 198 192 183 182 179 176 176 183 191 194 195 193 187 186 187 188 188 188 188 186 184 180 173 170 167 159 149 138 133 127 124 123 123 124 124
238 245 192 158 164 171 224 249 179 196 260 240 209 202 242 260 240 240 278 311 326 313 270 293 325 297 296 305 167 174 185 179 186 177 161 162 158 150 145 140 138 144 150 151 156 161 163 170 177 184 195 200 194 186 183 180 178 178 183 188 191 195 193 185 183 183 183 182 182 182 180 182 181 175 175 175 168 159 148 139 135 131 129 127 125 124
244 242 129 127 165 174 205 238 199 182 224 270 226 203 216 239 244 249 279 318 353 326 283 76 3 300 306 311 160 138 155 171 172 163 162 160 144 141 142 140 139 148 157 157 161 166 164 170 176 186 198 203 202 195 187 183 182 182 184 185 189 195 194 187 183 183 183 182 182 181 177 175 172 168 175 178 169 163 158 148 143 142 139 135 130 129
244 209 147 167 181 176 202 239 208 168 179 264 235 203 210 225 240 251 259 255 280 279 265 91 106 264 307 333 225 156 150 156 163 164 165 158 150 151 151 150 151 156 161 158 163 169 166 169 175 188 199 203 207 202 191 186 186 185 184 183 187 193 194 191 187 186 188 187 187 187 183 178 173 167 170 174 166 160 159 152 151 154 152 149 143 140
214 183 175 181 171 178 207 240 207 160 152 245 227 183 198 215 223 233 225 212 232 270 299 45 125 212 288 320 331 119 133 141 157 161 163 159 154 151 151 158 159 159 161 158 164 170 170 175 183 193 199 202 207 205 193 189 189 187 184 182 185 190 192 191 190 190 190 191 192 189 183 176 173 168 164 164 162 158 155 148 146 149 154 161 158 149
189 190 201 182 168 185 213 228 191 151 165 244 216 166 197 213 210 214 198 198 246 354 310 309 93 168 267 285 346 58 118 146 166 168 168 164 158 155 153 157 158 159 165 166 167 170 173 182 190 197 200 202 207 208 199 191 188 185 183 183 185 187 189 189 190 191 191 194 196 189 180 172 168 167 162 161 162 158 152 145 142 143 151 160 155 147
227 199 186 160 172 205 230 237 174 156 200 238 197 173 215 210 196 201 158 145 75 49 264 272 223 156 272 297 12 46 115 162 174 174 170 162 159 160 154 154 161 164 170 175 173 174 180 187 194 199 200 202 206 210 205 193 185 182 181 183 185 186 187 187 188 191 192 196 196 188 180 173 167 165 161 162 163 160 154 147 144 143 147 152 147 138
268 220 169 159 195 211 231 241 181 179 204 197 141 194 238 341 43 55 92 103 92 283 255 251 217 152 269 291 51 55 235 184 168 164 166 162 159 161 159 161 169 168 167 176 180 181 184 188 193 196 197 202 206 209 205 194 184 179 179 182 183 185 187 187 187 191 194 194 192 187 182 177 171 166 164 165 165 162 159 154 151 147 144 148 147 141
312 283 229 222 218 210 222 246 211 193 201 144 104 169 213 296 11 35 3 53 112 248 262 252 204 141 156 259 247 264 258 205 173 166 168 170 168 169 171 168 170 168 167 176 184 188 187 185 183 183 193 204 206 206 200 192 185 178 178 180 180 183 186 187 188 191 193 190 188 187 184 180 176 171 170 171 169 166 164 160 157 156 153 154 154 151
305 248 262 288 242 206 192 245 309 156 167 149 116 89 110 290 356 14 302 55 184 241 260 265 198 144 196 241 273 304 270 220 193 179 175 175 172 171 173 170 170 167 167 175 183 187 189 186 173 172 188 199 203 204 196 183 177 175 178 179 178 182 186 186 188 190 189 186 186 187 186 183 179 176 177 176 173 169 167 163 161 164 166 166 162 157
297 293 294 299 272 212 166 180 237 177 160 159 159 133 133 143 65 296 270 238 247 241 253 279 239 207 265 270 319 321 276 220 203 193 182 173 160 152 152 153 153 146 156 181 192 192 189 184 173 175 183 187 194 202 195 178 166 169 178 181 180 183 186 186 187 187 185 184 185 186 186 183 180 179 180 179 176 170 166 163 161 162 167 170 169 164
214 306 267 206 257 238 176 186 182 161 158 174 166 137 139 151 150 228 230 184 231 240 292 320 346 159 239 290 323 322 305 178 165 165 151 139 125 113 98 88 88 147 203 196 191 206 196 155 157 172 172 172 186 199 198 184 167 163 176 184 185 185 185 186 185 183 183 182 183 183 183 181 180 179 179 180 178 172 166 162 158 157 160 166 171 169
166 252 254 234 250 243 220 216 157 122 125 222 145 107 138 182 158 189 203 175 191 175 358 336 357 193 227 286 336 352 42 80 108 117 116 127 130 122 119 130 167 204 209 171 62 33 16 45 97 152 154 160 177 194 198 192 177 164 171 182 188 188 185 184 182 180 180 179 180 181 179 178 178 178 180 181 178 174 172 170 165 161 163 167 172 172
136 254 273 308 298 250 232 226 173 152 182 208 131 151 211 173 135 133 215 264 72 128 309 329 177 313 327 353 352 6 65 99 118 122 125 132 119 109 152 175 183 197 182 89 67 62 49 63 110 142 144 153 167 184 195 197 189 173 170 179 186 187 185 183 181 179 177 176 178 178 177 177 178 180 183 181 176 175 177 178 176 175 177 178 178 177
163 258 282 311 291 272 234 193 205 155 143 126 177 204 190 79 94 112 149 12 37 154 264 339 183 295 19 84 329 349 76 126 138 133 127 129 129 148 197 185 126 90 85 82 82 86 84 97 128 135 134 148 159 171 185 191 193 184 175 177 179 181 181 179 180 178 174 175 177 176 176 179 181 183 185 180 176 178 179 180 181 182 184 185 180 178
149 257 290 277 254 287 350 82 6 331 40 132 174 181 110 104 225 91 135 134 99 166 269 342 311 259 178 198 298 314 269 152 157 150 142 152 163 173 173 105 69 56 56 74 91 102 113 121 132 130 126 137 149 158 169 172 178 180 172 165 163 172 176 174 176 174 170 176 179 178 179 181 182 184 183 179 178 184 184 181 181 182 184 185 181 179
128 173 285 282 257 320 4 55 121 305 335 58 123 55 52 137 166 171 153 152 148 156 185 106 348 264 224 231 280 279 292 24 22 314 172 170 164 135 111 98 84 58 43 76 99 112 120 115 119 121 119 128 140 146 147 147 156 165 163 155 155 164 166 163 165 163 159 164 169 173 176 177 181 185 184 182 184 189 189 182 180 183 186 189 188 184
73 125 252 290 327 14 7 225 183 195 339 45 95 34 347 37 126 156 155 114 132 145 162 155 204 260 248 264 285 274 298 56 45 8 353 349 87 90 105 121 121 120 103 85 85 89 94 91 91 98 103 108 122 135 140 138 144 159 176 178 170 162 156 155 157 158 163 166 165 167 171 173 179 186 188 189 191 192 188 181 181 186 190 193 192 189
77 129 185 291 332 345 253 269 199 162 131 125 129 102 181 195 125 126 274 312 107 125 161 157 185 263 272 314 310 303 62 82 65 48 31 18 26 48 85 116 116 116 112 106 102 99 102 104 102 103 104 106 115 129 136 138 150 167 178 174 161 153 154 158 158 160 167 173 172 172 172 172 176 185 194 196 195 192 185 179 185 191 193 195 194 189
133 106 109 278 268 239 263 314 340 340 103 105 100 96 134 137 98 125 190 252 97 103 143 119 119 263 280 326 338 31 82 80 56 51 72 66 40 20 28 67 75 76 89 106 108 106 112 119 119 114 110 112 118 126 133 149 165 166 146 137 145 151 155 159 161 166 173 178 178 176 173 173 178 186 196 197 192 190 186 182 190 194 194 196 194 185
93 76 64 305 302 303 310 333 330 321 61 82 55 55 92 50 113 154 172 173 139 153 150 86 64 256 276 349 5 64 86 87 66 40 62 88 79 49 40 52 62 67 79 90 92 95 103 112 118 117 114 115 119 120 128 150 160 139 114 126 147 153 156 161 169 177 181 179 176 174 175 181 187 189 195 198 191 191 194 190 191 194 195 198 194 185
225 68 82 67 7 345 335 337 330 330 13 69 95 74 53 33 83 139 152 86 105 187 149 123 198 255 280 33 47 80 90 91 84 71 67 72 77 80 77 77 89 98 98 93 89 90 91 91 96 106 115 122 125 125 126 136 146 140 137 144 149 152 163 171 175 180 180 175 173 174 178 186 190 191 195 198 194 195 200 194 192 193 195 199 195 187
136 151 110 121 146 179 218 268 264 274 343 349 9 85 79 52 54 101 115 76 99 222 94 121 186 213 134 110 92 99 107 102 96 94 92 86 80 82 86 89 90 80 73 72 68 66 67 61 55 61 79 101 114 118 118 125 141 147 146 146 145 154 170 177 177 175 174 174 175 177 180 185 187 186 187 192 194 201 201 195 193 194 195 199 197 191
115 82 60 115 142 177 210 235 240 198 89 13 336 15 72 83 69 83 84 77 148 120 37 346 177 147 152 157 128 115 110 103 99 93 92 91 85 80 71 66 66 57 51 52 49 46 48 54 59 54 55 74 93 104 110 115 126 134 138 144 148 153 162 170 173 170 168 172 173 173 175 177 178 175 176 187 195 201 202 196 196 197 195 198 199 193
103 50 17 82 99 128 256 282 299 86 91 64 10 2 354 5 69 78 85 133 140 111 352 280 139 131 151 150 130 126 105 87 75 64 72 74 73 74 69 66 65 59 53 53 49 43 38 35 48 57 54 66 88 99 106 110 114 121 131 143 151 155 158 163 166 166 168 170 170 169 170 171 172 171 177 192 193 195 205 204 201 201 198 199 199 195
106 55 349 69 44 20 12 4 19 75 90 60 41 25 359 357 67 91 99 168 138 138 181 157 110 98 104 90 83 76 73 76 67 56 63 65 64 66 64 64 65 62 61 60 51 47 46 30 25 52 58 63 77 88 97 104 110 116 120 128 139 150 159 162 160 160 165 170 172 172 169 167 168 172 181 195 196 198 209 209 203 202 200 201 203 200
103 52 349 40 42 23 15 18 30 45 76 62 39 31 23 23 78 101 103 106 101 105 129 121 99 68 25 28 52 65 74 81 74 62 64 64 60 65 67 66 66 64 62 59 48 40 44 36 25 42 54 58 67 77 85 93 100 104 106 109 114 123 139 148 147 145 150 158 164 165 163 163 166 172 179 188 194 198 204 202 198 199 201 205 208 208
87 115 292 65 65 15 360 26 32 10 38 71 40 19 20 25 61 91 101 103 87 81 98 105 96 70 17 33 69 75 77 86 83 75 73 68 57 65 71 68 65 64 58 56 51 40 35 34 29 36 45 52 63 73 79 83 87 88 90 94 97 100 107 113 116 119 124 131 140 147 155 160 165 170 174 181 189 192 188 186 188 195 205 208 208 211
70 127 115 65 85 353 351 22 9 344 6 52 29 5 2 2 22 57 64 93 120 128 122 115 117 107 73 78 80 70 66 76 78 75 76 69 51 60 70 64 59 58 52 50 49 39 33 35 30 32 41 51 62 70 74 79 81 80 81 84 87 91 94 94 94 96 98 104 112 121 136 149 154 155 158 167 177 176 171 173 177 184 192 190 187 191
88 123 121 78 101 13 8 28 1 347 10 24 360 351 335 303 291 3 13 6 26 139 138 145 153 113 76 75 79 69 59 60 62 57 58 61 58 63 65 59 55 54 49 49 49 37 30 38 39 40 46 54 63 69 74 78 79 77 78 81 83 85 87 85 84 83 83 87 94 99 106 116 118 116 119 128 129 127 142 157 161 161 154 143 147 156
70 108 127 105 108 113 11 44 32 17 45 280 326 337 318 306 25 64 51 9 6 64 99 104 108 96 75 62 69 68 57 53 56 49 38 38 53 71 72 62 55 55 51 50 51 43 36 43 49 51 54 58 65 70 75 79 79 79 79 79 80 80 79 78 77 76 75 77 82 87 92 96 97 98 102 103 98 99 106 113 119 131 135 128 134 144
86 95 111 74 97 130 108 68 58 348 243 265 319 326 349 71 86 85 68 37 33 75 96 97 100 102 96 89 84 81 69 56 56 51 40 34 35 58 74 66 54 54 56 52 51 51 49 50 52 55 56 58 63 68 72 75 78 78 76 75 75 74 74 73 72 70 70 71 72 76 80 83 85 88 92 93 91 91 89 89 94 100 99 100 107 104
122 112 111 80 81 131 115 84 115 227 288 334 328 327 5 46 50 59 56 38 30 64 106 108 107 107 108 111 111 105 102 84 64 49 37 39 44 54 73 75 64 58 59 59 56 54 55 55 55 58 61 61 61 63 66 69 73 75 73 71 72 70 70 70 68 66 66 66 65 67 69 73 75 75 77 80 82 80 77 76 79 81 81 83 86 82
120 122 112 79 81 134 119 94 110 193 339 4 343 325 17 45 333 3 64 42 29 46 116 119 119 120 122 124 126 130 130 101 71 45 25 34 44 47 53 64 71 70 68 68 65 62 65 64 60 61 65 65 62 62 64 67 70 72 70 67 67 67 66 66 64 63 63 63 62 62 62 62 64 64 64 66 66 65 64 63 63 63 64 67 67 64
86 121 141 124 91 96 105 102 117 156 205 182 285 291 272 195 236 196 99 29 54 112 137 130 129 134 138 138 146 160 139 92 74 48 34 43 41 39 43 58 73 77 77 77 73 67 67 68 65 65 68 69 65 63 66 68 69 68 65 63 63 63 62 61 60 60 61 60 58 58 56 56 56 56 55 54 53 52 52 51 50 47 46 47 47 45
43 49 101 104 82 77 103 115 157 178 194 218 285 303 324 277 228 136 72 347 177 151 153 141 138 146 152 149 155 172 138 102 111 153 93 69 50 45 45 55 67 70 70 73 74 70 67 69 71 72 72 71 68 65 68 71 70 68 63 59 60 60 58 58 57 57 58 58 56 54 52 50 50 50 50 49 47 44 42 41 40 37 35 36 37 34
30 20 36 65 61 64 90 98 156 170 196 343 322 317 318 299 176 84 56 270 191 152 162 157 148 151 152 149 148 120 77 136 151 153 148 135 90 77 77 76 79 84 83 81 82 79 74 72 73 72 71 71 71 70 71 71 70 67 62 58 58 57 56 56 55 55 55 55 55 54 52 49 47 46 46 46 44 41 38 34 30 27 25 25 25 22
19 18 37 74 67 40 64 84 32 318 304 340 329 312 305 303 76 94 211 233 169 146 161 159 148 149 151 150 153 74 75 113 125 134 145 146 124 111 110 108 107 108 106 102 100 95 88 82 78 76 76 76 75 73 71 69 69 67 63 59 58 56 54 54 52 51 52 51 52 52 50 47 44 42 40 37 34 32 32 29 24 19 16 14 12 10
14 17 14 50 54 31 72 83 11 303 301 344 327 305 298 313 160 220 246 184 141 143 152 152 153 158 153 134 121 107 103 107 116 126 131 126 115 107 107 109 108 105 103 103 102 99 95 90 85 84 83 80 75 71 67 67 68 66 61 57 55 51 47 45 45 45 47 49 50 49 46 42 38 35 32 27 21 19 19 18 16 12 9 6 2 1
34 50 13 13 22 29 62 59 41 228 306 340 335 320 339 86 213 248 355 85 125 140 147 156 165 160 131 112 108 111 113 113 118 123 121 115 108 101 103 108 108 103 101 100 98 97 94 90 87 86 84 78 72 66 63 65 67 65 61 56 49 44 44 44 42 41 43 45 46 44 41 38 33 30 26 21 17 14 12 10 7 5 4 2 359 358
16 64 138 313 346 49 75 70 144 244 295 325 342 349 350 327 263 211 92 82 97 127 143 148 136 120 121 118 114 114 115 113 115 114 109 108 106 99 98 100 102 101 99 97 97 95 91 89 87 85 81 74 68 64 62 64 67 65 61 55 45 43 50 53 50 49 49 46 43 39 34 31 27 24 22 17 13 11 8 5 2 1 1 359 358 357
360 84 120 115 40 87 108 157 223 270 294 318 360 17 16 21 25 66 92 89 72 84 114 116 108 111 118 118 114 110 108 107 106 105 105 108 105 98 96 97 99 100 98 96 95 90 87 87 86 81 76 69 64 62 59 58 61 63 60 53 46 47 54 58 58 59 56 50 44 38 32 27 23 21 19 16 15 13 10 6 2 359 358 355 354 354
212 104 91 94 101 80 64 49 19 337 332 3 26 30 43 47 40 59 81 82 70 72 82 93 103 107 111 114 112 108 110 111 106 103 106 104 94 93 98 100 101 102 101 97 93 89 85 83 79 74 70 65 60 59 55 52 54 58 57 52 49 52 58 62 63 62 58 52 47 40 32 28 26 23 20 18 17 15 12 8 4 1 358 355 352 351
302 77 76 86 101 75 53 29 8 354 345 13 35 46 52 54 51 60 77 81 78 79 81 82 87 90 94 104 109 114 120 121 118 120 121 115 106 103 106 107 105 104 104 101 98 95 90 86 83 77 72 67 61 57 54 52 53 56 56 53 50 51 56 60 61 59 55 51 46 39 33 31 30 26 22 19 15 11 7 3 359 356 352 350 349 345
355 66 74 78 68 67 106 350 354 14 10 10 35 54 56 63 67 65 73 86 86 83 79 76 79 84 86 92 104 113 115 113 117 121 116 106 109 116 120 120 117 113 112 113 112 105 97 95 96 90 82 80 77 68 61 58 58 60 59 56 52 49 52 56 56 53 48 42 37 33 30 29 27 21 14 9 3 358 354 350 348 345 341 340 340 337
2 44 56 84 68 45 44 5 15 37 27 16 39 58 46 61 76 71 69 75 79 82 79 70 69 80 94 103 109 108 100 89 90 97 89 73 90 117 131 133 130 128 126 124 120 112 102 98 96 90 87 87 86 81 72 66 65 65 61 57 53 47 47 50 50 45 40 34 31 28 23 21 18 12 5 0 356 354 353 350 346 340 332 326 325 325
56 65 58 89 87 38 238 208 171 112 84 306 106 83 67 79 88 82 76 72 72 83 91 83 72 69 78 94 107 105 98 85 83 87 82 68 77 109 137 141 138 137 134 127 123 116 107 101 94 84 79 75 71 76 75 66 64 63 58 53 47 38 36 35 33 32 31 25 21 18 14 10 8 6 6 7 6 4 2 360 356 348 336 327 319 311
110 154 165 133 153 228 220 192 173 139 150 206 214 142 102 106 105 103 102 98 96 104 108 105 97 78 62 71 95 104 106 104 97 92 83 70 77 100 131 148 145 141 137 135 134 128 118 112 102 82 70 61 53 55 68 66 62 59 53 46 38 31 28 25 22 24 24 17 11 7 4 3 5 10 15 15 9 2 355 351 351 349 343 333 320 313
Height
751 758 761 761 761 761 760 760 761 762 763 764 767 769 770 771 765 756 752 745 740 747 746 740 742 741 736 734 737 742 743 745 748 751 753 753 756 758 759 761 762 765 767 768 770 769 768 769 770 771 771 772 773 774 775 775 774 774 776 778 782 785 787 790 792 795 798 801 804 806 808 809 810 812 813 815 816 818 819 820 820 820 821 822 823 823
753 760 760 757 758 756 755 758 761 762 764 765 767 769 769 771 764 753 751 745 740 749 747 739 742 740 733 732 735 739 743 745 746 749 751 752 755 757 757 760 761 763 766 767 769 769 769 770 770 771 771 771 771 773 774 775 776 777 777 778 780 784 787 790 792 794 798 801 804 806 807 809 811 812 814 815 817 818 819 820 820 820 821 822 823 824
760 761 756 753 754 754 756 760 763 765 764 767 769 771 771 767 762 753 747 743 740 747 745 740 743 739 729 730 734 737 739 739 737 738 742 746 751 754 755 757 759 762 765 766 768 768 769 769 770 771 771 770 770 771 773 775 777 779 780 780 782 784 787 790 792 795 798 801 804 806 808 809 811 813 814 816 817 818 819 820 820 821 821 822 823 824
765 757 749 750 753 755 759 760 764 766 766 769 770 772 772 766 766 760 749 744 741 744 743 742 745 739 730 729 732 735 734 732 733 733 735 740 744 748 751 753 756 760 763 765 767 768 768 769 770 771 769 769 771 772 773 775 776 778 780 781 782 785 787 790 793 796 800 802 805 806 808 810 811 813 814 816 817 818 819 819 820 821 822 823 823 824
760 749 743 748 753 756 758 759 764 767 768 769 767 770 769 762 763 762 753 749 745 745 745 746 748 740 730 731 733 735 735 733 734 737 740 743 743 746 751 754 757 759 761 763 766 766 766 767 768 769 768 767 769 771 772 774 775 777 779 780 782 785 787 791 794 797 800 802 804 806 808 810 811 813 814 816 817 818 819 819 820 821 822 823 824 825
754 744 742 748 753 755 758 759 761 765 768 768 763 761 761 757 757 757 755 756 756 753 746 747 757 749 729 730 736 736 739 739 738 740 744 745 746 749 752 755 757 760 761 762 764 764 763 764 766 767 766 766 767 769 771 773 775 776 778 780 782 784 787 791 794 797 800 801 803 805 807 809 810 812 814 815 817 818 819 820 821 822 823 824 824 825
747 741 741 746 750 754 758 759 757 759 768 768 756 749 751 752 755 756 757 760 760 756 747 746 762 760 735 728 738 739 740 744 742 743 745 745 746 749 752 754 755 758 760 761 763 763 763 763 764 765 764 763 764 767 771 773 776 777 778 781 783 785 787 791 794 797 799 801 803 805 806 808 810 811 813 815 817 818 819 820 821 822 823 824 824 825
740 740 743 745 748 754 758 757 751 752 764 762 745 740 747 750 753 754 755 758 755 752 749 747 756 760 744 735 742 743 743 747 747 746 746 745 747 749 751 753 754 755 757 760 762 763 762 762 762 762 762 761 762 766 770 772 775 777 779 782 784 786 789 791 794 796 799 801 803 804 806 808 810 811 813 815 817 818 820 821 821 822 823 824 825 825
736 740 743 744 750 754 751 745 743 748 755 747 735 739 743 743 747 748 751 756 754 754 753 748 751 758 749 740 745 748 748 751 749 747 746 745 746 748 750 753 754 755 756 757 760 760 761 761 760 760 760 762 764 767 770 772 775 778 780 783 785 788 790 792 794 796 799 801 802 804 806 808 810 812 814 815 817 818 820 821 822 823 824 825 825 825
735 735 735 740 747 747 740 734 737 745 745 734 732 739 739 741 746 745 749 752 754 761 758 746 747 753 749 743 745 749 752 753 750 746 744 744 746 747 748 752 753 755 756 757 759 759 759 759 760 761 763 765 766 768 773 776 778 780 782 784 786 788 791 793 795 797 799 801 802 805 806 808 810 812 814 815 817 818 819 821 822 823 824 825 825 826
734 731 731 735 737 734 730 729 732 735 732 728 734 740 741 745 746 746 751 750 757 767 754 741 744 748 749 749 748 749 750 750 748 747 746 745 746 747 748 750 752 753 756 757 759 759 760 761 762 764 766 767 769 771 775 778 780 782 783 785 787 789 792 794 796 798 800 802 803 805 807 809 810 812 814 815 817 818 819 821 822 823 824 825 825 826
735 734 732 727 724 725 726 728 728 728 729 732 737 741 745 750 748 752 756 756 767 768 746 739 744 744 748 750 751 751 747 745 743 742 743 744 745 746 746 748 750 752 755 758 759 760 761 762 764 766 767 769 770 773 776 779 781 783 784 786 788 790 793 795 797 799 800 802 804 806 807 809 811 813 815 816 818 819 820 821 822 823 824 825 826 826
736 733 730 724 719 719 726 732 732 730 732 737 740 743 752 759 760 763 765 765 769 759 745 746 745 743 748 748 750 751 747 743 738 732 733 737 740 743 744 746 748 752 756 759 760 761 762 763 765 766 768 769 772 774 777 780 782 783 784 786 789 791 793 795 797 799 801 803 804 806 808 810 812 814 816 817 819 820 821 822 823 823 824 825 826 826
741 733 727 726 721 714 721 732 735 734 735 737 739 743 752 765 773 775 773 774 767 752 747 749 743 744 750 747 749 750 744 739 734 730 730 732 737 742 744 747 749 753 757 759 760 760 761 764 765 767 768 770 773 775 778 780 781 782 784 786 788 790 792 794 797 799 801 803 805 806 808 810 812 814 817 818 820 821 822 822 823 823 824 825 826 826
749 743 728 723 721 714 714 720 721 724 729 732 731 734 744 753 762 768 764 762 759 751 749 749 748 755 755 749 749 746 739 736 735 735 736 737 741 744 747 752 756 760 759 759 762 765 765 766 768 770 770 771 774 775 778 780 781 781 783 785 787 789 792 794 797 799 801 803 805 807 809 811 813 815 817 819 821 822 822 823 823 824 825 825 826 826
750 745 724 716 717 713 712 711 709 715 725 733 731 733 740 738 741 755 760 758 755 752 755 758 760 763 757 749 747 745 741 740 740 741 742 745 746 746 748 752 756 759 759 761 767 771 771 770 771 772 772 773 774 775 777 778 780 781 782 784 787 789 792 794 797 799 802 803 805 807 809 811 814 815 817 819 821 822 823 824 824 824 825 826 826 827
747 740 721 717 716 710 710 709 707 712 722 733 734 731 732 728 729 746 761 764 759 754 763 772 768 762 758 752 748 748 747 745 744 745 746 748 750 752 753 751 753 758 760 764 770 772 772 771 772 773 773 773 774 776 777 778 780 781 783 785 787 789 792 794 797 799 802 803 805 808 810 812 814 816 818 820 821 823 823 824 824 825 825 826 826 827
742 738 723 720 719 709 707 708 706 707 713 725 731 725 726 732 733 739 753 764 763 759 766 774 771 767 766 761 755 754 752 750 748 747 749 751 751 754 756 756 758 762 764 766 768 770 771 771 772 773 773 773 774 776 778 779 781 783 785 786 787 789 792 794 798 800 802 804 806 809 811 813 815 816 818 820 822 823 823 823 824 825 826 826 827 827
738 741 728 720 721 713 707 711 714 711 710 715 719 718 723 736 740 741 750 759 762 767 772 773 774 773 769 763 761 759 756 754 752 750 749 751 750 751 755 759 761 763 765 766 768 769 770 771 772 772 772 773 774 777 780 781 783 784 786 787 789 791 793 795 798 800 802 805 807 810 811 813 815 816 818 820 821 822 822 822 823 825 826 827 827 828
735 743 736 721 718 717 713 718 725 722 714 712 715 719 723 730 737 740 745 748 752 765 775 775 774 771 767 766 765 761 759 758 759 758 754 752 753 754 757 760 762 765 767 768 768 769 770 771 772 773 773 774 775 778 780 782 784 785 786 788 791 794 795 797 799 800 803 806 807 810 812 814 815 816 818 819 820 821 821 821 823 825 827 827 828 829
734 743 743 726 717 722 724 723 727 727 722 719 722 727 730 731 734 738 743 746 746 753 767 773 774 770 766 767 767 764 762 762 763 763 761 759 758 758 759 758 759 764 768 768 769 770 771 773 775 775 775 776 776 778 780 782 784 785 786 787 789 792 794 797 798 800 803 805 806 808 810 812 814 816 818 819 820 820 820 821 823 825 828 828 829 829
734 740 745 737 728 731 731 724 724 725 725 727 730 735 740 737 735 739 747 751 746 748 757 762 766 770 768 766 766 765 763 762 763 764 764 766 765 764 763 759 759 762 766 768 769 769 770 772 774 775 775 776 777 778 781 782 782 782 784 786 788 791 793 795 797 799 802 803 804 805 807 810 813 816 818 819 821 821 820 821 823 826 828 828 829 829
732 738 744 742 738 738 732 725 725 726 725 727 732 740 743 740 736 737 742 747 746 752 759 756 760 769 770 766 765 764 763 762 764 764 764 766 769 771 770 765 765 767 768 769 768 768 769 770 771 773 774 775 776 777 781 782 781 782 784 787 790 792 794 796 798 799 801 803 804 806 808 810 813 816 819 821 821 821 820 821 823 826 828 828 828 829
732 740 744 743 742 738 731 726 725 726 726 726 732 741 742 742 742 739 739 741 742 750 755 753 762 771 768 767 766 764 764 763 763 765 764 765 769 774 775 773 773 773 773 773 772 771 771 771 771 772 774 775 776 777 780 781 782 785 787 790 792 793 795 796 797 799 800 802 805 808 810 812 814 816 819 821 821 820 821 822 823 826 828 828 828 828
736 746 746 748 754 751 744 739 732 727 730 733 736 740 741 742 741 740 744 741 741 753 753 747 763 775 768 767 768 766 767 766 766 767 767 767 770 773 777 778 777 776 775 775 775 773 773 773 774 775 776 777 777 778 779 781 783 784 786 788 791 793 795 796 797 799 800 802 805 807 810 812 815 817 819 820 820 820 821 822 824 826 827 828 828 828
738 749 747 748 758 762 759 753 744 738 741 743 740 737 739 741 737 737 742 739 742 758 758 751 764 776 771 769 770 769 770 771 770 770 769 769 772 775 779 781 779 777 776 776 776 776 776 776 777 779 779 779 780 780 781 783 784 784 785 788 790 792 794 795 797 798 800 802 804 806 808 811 814 817 818 819 819 820 821 822 824 825 826 827 828 828
741 752 754 751 754 759 759 753 747 745 745 746 744 739 739 741 739 738 740 743 752 763 763 762 769 772 771 772 772 772 773 773 774 773 771 772 774 778 782 782 780 780 780 780 780 781 780 780 780 781 782 781 782 782 783 784 786 787 789 791 792 793 794 795 797 797 799 802 804 806 808 810 813 815 818 819 820 821 822 823 824 825 826 827 828 828
742 752 759 760 759 761 760 753 749 748 748 752 753 749 746 742 736 737 744 753 759 759 761 768 770 768 771 773 772 774 775 775 777 777 777 778 780 783 784 783 783 785 786 786 786 787 787 786 784 783 784 784 784 785 785 786 788 790 792 794 794 795 796 797 798 799 799 801 803 806 808 809 812 814 817 819 821 823 824 824 825 825 826 827 828 828
747 756 761 762 760 760 759 754 751 753 756 761 761 758 757 752 741 744 758 766 760 751 757 768 770 773 777 777 778 780 780 781 784 785 784 785 786 787 787 787 788 790 790 791 792 792 792 792 789 787 787 788 787 786 787 788 790 791 793 795 796 797 798 799 800 800 801 801 803 805 807 808 810 813 816 819 822 823 824 825 825 826 826 827 828 828
750 762 766 762 759 760 761 757 757 759 759 762 767 766 765 764 758 758 768 773 765 758 762 769 775 784 789 788 788 788 787 788 789 789 790 791 791 792 791 792 794 796 796 796 796 796 795 794 794 791 790 790 790 789 789 790 791 793 794 796 797 798 800 800 801 802 803 804 805 806 808 809 811 813 815 818 821 823 823 824 825 826 826 827 828 829
747 760 766 761 761 766 767 762 761 764 762 761 766 769 768 769 769 766 767 769 768 769 773 774 778 788 794 792 792 792 790 790 792 793 795 796 796 796 795 797 799 800 800 799 799 800 799 798 797 795 794 794 793 793 793 793 794 795 796 797 798 799 800 801 802 804 805 806 807 808 809 811 813 815 816 817 820 821 821 823 824 825 826 826 827 828
745 759 765 761 762 770 772 769 768 767 762 759 764 774 779 777 773 770 769 768 767 771 776 775 776 787 795 795 794 795 795 795 797 799 799 800 800 799 800 802 802 802 802 802 802 803 803 803 801 799 798 798 797 797 797 798 798 799 800 800 800 801 801 802 804 805 807 808 809 810 811 813 815 817 818 819 821 821 822 823 824 825 825 825 826 827
748 755 761 760 765 775 777 775 774 769 762 763 774 785 788 781 774 771 774 774 771 770 771 772 779 791 799 798 799 801 802 803 804 805 804 804 804 803 804 806 806 805 805 804 805 806 806 805 804 803 802 801 801 801 802 802 802 803 803 803 803 803 804 805 807 808 809 810 811 811 813 814 816 818 819 821 822 823 824 824 825 825 826 826 827 827
752 754 759 761 766 776 780 776 775 774 771 775 784 789 787 782 778 778 783 787 785 781 781 783 790 799 803 805 808 810 811 812 811 810 809 808 808 808 808 808 809 809 809 808 808 809 809 808 807 806 805 805 806 806 806 805 805 806 807 807 806 806 807 808 809 810 812 813 813 814 814 815 816 818 820 821 821 822 824 825 826 827 827 828 829 828
755 756 760 764 767 776 780 775 773 777 781 783 786 787 786 785 785 786 790 793 793 792 793 795 799 802 806 811 815 815 816 817 814 813 813 812 812 812 811 811 813 813 812 812 812 812 812 811 810 809 808 809 810 810 809 808 809 809 809 810 810 810 811 811 812 813 814 815 815 816 816 816 817 818 820 821 821 822 823 824 826 827 828 828 829 829
752 756 761 768 772 775 776 774 775 782 787 785 784 786 786 786 786 784 785 792 797 796 796 800 804 807 809 813 815 815 817 817 815 816 817 815 815 815 814 814 815 816 816 815 815 815 814 814 814 813 812 812 812 812 812 812 812 811 811 812 813 813 814 814 814 816 816 817 818 818 818 819 819 820 821 821 821 822 823 825 826 826 827 828 828 828
751 754 758 766 774 776 779 784 786 787 787 786 786 789 790 791 792 789 788 795 800 798 798 802 807 809 811 812 814 814 812 812 816 820 820 817 817 817 817 817 817 818 819 818 818 818 817 817 817 816 814 813 814 815 815 815 815 813 813 814 815 816 817 817 818 819 819 819 820 820 821 821 821 821 822 822 822 823 824 825 826 827 827 827 827 827
754 753 753 761 774 778 779 786 788 784 786 790 791 791 790 792 795 794 792 795 799 800 800 802 805 809 811 812 812 811 807 808 818 825 824 821 820 820 821 820 820 821 822 821 820 820 819 819 820 819 818 817 817 818 818 818 816 814 815 817 818 818 818 819 821 822 822 822 823 823 823 823 823 823 823 823 824 825 825 826 826 827 827 826 826 826
756 758 755 758 771 777 775 778 784 784 789 795 795 791 791 792 793 792 788 790 797 802 802 802 806 809 809 809 809 808 806 809 820 827 826 824 824 823 823 823 823 823 823 823 822 822 822 822 822 822 822 821 821 821 821 820 818 816 817 819 819 819 820 822 823 824 824 825 825 825 825 826 826 826 825 826 826 826 826 826 826 827 827 827 827 827
760 764 764 765 776 782 779 781 788 792 795 799 797 794 792 791 790 787 782 785 796 803 803 804 806 806 807 807 808 808 807 810 819 824 824 825 826 825 826 826 826 827 827 827 826 825 825 825 825 825 825 824 824 824 824 822 819 818 821 822 822 822 824 825 827 827 827 828 827 828 828 828 828 828 828 828 828 827 827 827 826 827 827 826 827 826
771 773 776 779 785 788 788 790 795 798 800 802 801 798 794 789 787 785 784 789 799 803 804 805 805 805 806 807 807 808 809 811 815 820 823 824 825 826 827 828 828 829 829 830 830 829 829 829 829 829 828 828 828 827 826 824 822 823 825 825 824 826 828 829 829 829 829 829 829 829 829 828 828 828 828 829 828 827 827 826 826 826 825 825 826 826
782 783 786 789 791 794 796 797 797 799 802 804 803 799 793 788 788 789 792 796 800 802 804 806 806 805 806 806 807 810 812 813 816 820 822 824 825 826 827 827 828 829 830 830 831 832 832 833 833 832 832 831 830 829 828 826 825 826 827 827 827 829 830 829 829 829 829 829 829 829 828 828 828 828 827 827 827 826 826 825 825 825 824 824 824 824
792 791 794 799 800 797 797 798 798 799 803 805 802 797 792 791 794 796 798 799 799 801 804 806 806 805 806 808 810 812 814 817 819 821 823 824 825 826 827 828 829 830 831 831 832 833 833 834 834 833 833 832 831 831 830 828 828 829 828 828 830 831 830 829 829 828 827 827 827 827 827 827 827 827 827 827 826 826 825 825 825 824 824 824 824 824
795 793 794 804 807 800 799 805 808 807 809 809 804 800 799 800 799 798 798 800 801 801 802 804 806 807 807 810 813 814 816 819 821 822 824 825 826 827 828 829 830 831 832 833 833 834 833 833 834 834 833 833 833 832 832 831 830 831 830 831 833 832 831 830 829 828 827 827 826 826 827 827 827 827 827 827 826 826 826 825 825 825 825 825 825 825
800 797 796 806 813 810 808 813 815 812 812 811 808 806 804 802 800 799 799 802 804 803 803 805 808 809 809 811 814 817 819 822 823 825 825 826 827 828 829 829 830 831 832 833 833 833 833 833 834 834 834 834 834 833 833 833 832 832 833 834 834 833 832 832 831 830 830 829 829 829 829 829 829 828 828 828 827 827 827 826 826 826 826 826 825 825
802 801 800 806 813 813 811 813 814 814 813 811 808 807 805 803 803 802 801 804 807 806 806 808 810 812 813 813 816 820 822 824 825 826 827 828 829 829 829 830 831 831 832 833 833 833 834 834 834 834 834 834 834 834 834 834 833 833 835 836 835 834 834 834 833 833 833 833 833 833 833 833 832 832 831 831 830 830 830 829 828 828 827 827 826 826
800 800 803 808 812 813 814 816 816 815 815 812 809 808 807 806 806 805 805 808 810 809 810 812 813 815 816 816 818 821 824 825 826 828 829 829 830 831 831 831 832 833 833 834 834 835 835 835 835 835 835 835 835 835 836 835 835 836 836 836 836 836 836 836 835 836 836 836 836 836 836 836 835 835 834 833 833 832 832 831 830 829 829 828 827 827
800 799 804 811 815 816 816 818 818 816 815 814 812 811 811 810 810 810 810 812 813 813 814 816 816 818 819 820 821 823 825 826 827 828 830 830 831 832 832 832 833 834 834 835 836 836 837 837 837 837 837 837 838 838 838 838 838 838 838 838 838 838 837 837 837 837 837 837 837 837 837 836 836 836 835 834 834 833 832 831 830 830 829 828 828 827
803 804 810 815 819 821 820 819 818 817 816 816 815 814 815 813 813 814 814 815 816 817 818 819 821 822 823 823 824 825 827 829 830 830 831 832 832 833 833 834 834 835 836 837 838 838 839 839 839 839 839 839 840 840 840 840 840 840 840 840 839 839 839 839 838 838 838 838 838 837 837 837 836 836 835 834 833 832 832 831 830 829 828 828 828 827
806 810 815 816 817 819 818 817 816 815 816 819 818 816 817 816 815 816 818 818 820 821 821 823 824 825 825 826 826 827 829 831 832 832 833 834 834 834 835 835 836 837 837 838 839 839 840 840 840 841 841 841 841 841 841 841 841 841 841 841 841 841 840 839 839 839 839 838 838 838 837 837 836 836 835 834 833 832 831 831 830 829 828 827 827 826
809 811 812 811 811 812 811 813 816 815 816 818 818 817 819 818 817 819 820 821 823 824 824 824 826 827 829 829 829 829 831 833 833 833 834 835 835 835 836 836 837 837 838 839 839 839 840 841 841 842 842 842 843 843 842 842 842 842 842 842 842 841 840 840 839 839 839 839 839 838 838 837 837 836 835 834 833 832 831 830 829 829 828 827 826 825